Dewpoint
72 73 73 74 74 74 75 76 76 76 76 76 75 75 75 75 75 76 76 76 76 76 76 76 77 77 77 77 77 77 77 77 77 77 77 77 76 76 76 76 76 76 76 75 75 75 75 75 75 75 75 75 75 75 76 75 74 75 75 74 74 74 74 73 73 72 73 73 73 73 73 73 72 73 74 74 73 73 73 73 73 72 72 71 72
72 73 73 74 75 75 74 76 76 76 76 75 75 75 75 75 75 76 76 76 76 76 76 76 77 77 77 77 77 77 77 76 77 77 77 76 76 75 75 75 76 76 75 75 75 75 75 75 75 75 75 75 75 75 75 75 75 75 75 75 74 74 73 73 73 73 72 72 72 73 73 73 73 73 72 72 73 73 73 73 73 72 72 72 72
73 73 73 73 75 74 74 75 76 76 76 74 75 76 75 75 76 76 76 76 76 76 76 77 77 77 77 77 77 77 77 76 76 76 76 76 75 75 75 75 75 75 75 74 74 75 74 75 75 75 75 75 75 75 75 75 75 75 74 74 74 74 74 74 74 74 73 72 72 72 72 73 72 72 72 72 72 72 72 73 73 73 71 72 72
73 73 73 74 75 75 74 75 76 76 76 76 75 75 75 75 76 76 76 76 76 76 76 76 76 77 77 76 76 76 76 76 76 76 76 76 75 75 75 75 75 75 75 75 75 75 74 74 74 75 75 75 75 74 75 75 75 75 74 75 75 74 74 74 74 73 73 73 73 73 74 72 72 72 72 72 72 72 72 73 73 73 72 72 72
73 73 73 74 74 75 75 75 76 76 76 76 75 75 75 76 76 76 76 76 76 76 76 76 76 76 76 76 76 76 76 76 76 75 75 75 75 75 76 75 75 75 75 75 75 75 75 75 74 74 74 74 74 74 74 75 75 75 75 74 74 74 74 74 74 74 73 73 72 72 73 72 72 71 72 72 72 72 73 73 73 73 73 73 73
73 73 74 73 74 74 75 76 76 76 76 76 75 75 76 76 76 76 76 76 76 76 76 76 76 76 76 76 76 76 76 76 76 76 75 75 76 76 76 75 75 75 75 75 75 75 75 75 75 74 74 74 74 74 73 74 74 75 75 75 74 74 74 74 74 74 73 73 73 74 73 73 72 71 72 72 72 73 74 74 73 73 73 73 73
73 73 73 73 73 75 75 76 76 76 76 76 75 75 76 76 76 76 76 76 75 76 76 75 75 76 76 76 75 75 76 76 76 76 75 75 76 76 75 75 75 75 75 75 75 75 75 75 75 75 74 74 74 74 74 74 74 74 75 75 75 74 74 74 74 74 73 73 72 73 71 73 72 70 72 73 73 73 74 74 74 73 73 73 73
73 73 73 73 73 75 75 76 76 76 76 75 76 76 76 76 76 75 75 75 75 75 75 75 75 76 76 75 75 75 75 75 75 75 75 76 76 76 75 75 75 75 75 75 75 75 75 75 74 74 74 74 74 74 74 74 74 74 74 75 74 74 74 73 74 74 74 74 73 72 71 72 72 71 72 73 73 74 74 74 73 73 73 73 73
72 72 73 73 73 75 75 76 76 76 76 76 76 76 76 76 75 75 75 75 75 75 75 75 75 75 75 75 75 75 75 76 76 76 75 75 75 75 75 75 75 75 75 75 75 75 75 75 75 75 74 74 74 74 75 75 75 75 75 75 75 74 74 74 74 74 74 74 74 73 73 72 71 71 72 73 74 74 74 74 73 73 73 73 73
71 72 73 73 74 75 76 76 76 76 76 76 75 75 75 75 75 75 75 75 75 75 75 75 76 76 75 75 75 75 75 75 75 75 75 75 75 75 75 74 75 75 75 75 76 75 75 75 75 75 75 75 74 74 74 75 75 75 75 75 75 75 75 74 74 75 74 74 74 71 73 73 71 71 72 73 73 74 74 74 73 73 73 73 73
70 72 73 73 74 76 76 76 76 76 76 76 75 75 75 75 75 75 75 75 75 75 76 76 76 75 75 75 75 75 75 75 75 75 75 75 75 75 75 75 75 75 75 75 75 75 75 75 75 75 75 75 74 74 74 74 75 75 75 75 75 74 75 75 74 73 73 73 73 72 70 73 71 72 73 73 72 73 74 74 74 74 73 73 73
71 72 73 74 76 76 76 76 76 76 76 76 76 76 75 76 75 75 75 75 75 75 76 75 75 75 75 75 75 75 75 75 75 75 75 75 75 75 74 74 75 75 75 75 75 75 75 75 75 75 74 74 74 74 73 73 74 74 74 75 75 74 74 75 74 73 73 72 73 72 72 71 72 72 73 73 72 72 72 73 73 74 73 73 73
71 72 73 75 75 76 76 76 76 76 76 76 76 76 76 76 75 75 75 75 75 75 75 75 75 75 75 75 75 75 75 75 75 75 75 75 75 74 74 75 76 75 75 74 74 75 75 75 75 75 74 74 74 74 73 73 73 74 74 74 74 74 75 75 73 73 73 73 74 74 73 71 72 74 73 72 73 73 73 73 72 73 74 74 73
71 72 74 75 75 76 76 77 77 76 76 76 76 76 76 76 75 75 75 75 75 75 76 75 75 75 75 75 75 75 75 75 75 75 75 75 75 75 75 76 75 75 74 74 74 75 75 75 75 75 75 74 74 74 74 73 73 73 74 74 74 75 75 75 74 73 73 74 75 74 73 73 72 74 72 72 73 73 73 72 72 72 73 74 74
72 73 74 75 76 76 77 77 77 77 76 76 76 76 76 76 75 75 75 75 75 75 76 76 75 75 75 75 75 75 75 75 75 75 75 75 75 75 75 76 75 75 75 75 75 75 75 76 76 75 75 75 75 74 74 74 74 74 74 74 74 75 75 74 74 73 74 74 74 75 73 72 74 74 73 73 73 73 73 72 72 72 73 74 74
73 73 74 75 75 76 76 77 77 77 77 76 76 76 76 76 75 75 75 75 75 76 76 75 75 75 75 75 75 75 75 75 75 75 75 74 75 75 75 75 75 75 75 75 75 76 75 75 75 75 75 75 75 74 74 74 74 74 74 74 74 75 75 75 74 73 74 74 74 74 72 73 75 74 73 73 72 73 73 73 72 72 72 72 72
72 74 74 75 75 75 75 76 76 76 77 76 76 76 76 76 76 76 76 76 76 76 76 76 76 76 75 75 75 75 75 75 75 75 75 75 75 75 74 74 75 75 75 75 75 75 75 75 75 75 75 75 75 75 75 74 74 74 74 74 75 74 75 75 74 74 73 74 74 74 73 73 75 74 73 72 72 72 73 73 72 72 72 72 72
72 73 73 74 74 75 75 75 75 75 75 76 76 76 76 76 76 76 76 76 76 76 76 76 76 76 75 75 75 75 75 75 76 75 75 75 75 74 73 73 74 75 75 75 75 75 75 73 74 75 75 75 75 76 75 75 75 74 74 74 75 74 75 74 73 73 74 75 75 75 74 74 75 74 74 73 72 72 72 72 72 72 72 72 71
71 71 73 74 74 74 74 75 76 75 75 75 75 75 76 76 76 76 76 76 76 76 76 76 76 76 75 75 75 75 75 75 75 75 75 75 74 74 74 72 74 74 75 75 75 75 75 75 74 73 74 74 75 75 76 76 76 75 74 75 76 76 76 75 73 73 74 73 74 74 74 75 75 74 73 73 72 72 72 72 72 72 72 72 71
70 71 72 73 73 73 74 75 75 75 75 75 75 75 76 76 76 76 76 76 76 76 76 76 76 76 75 75 75 76 75 75 75 75 75 74 75 75 75 74 73 74 74 75 75 76 75 75 75 75 74 74 74 74 76 75 74 74 75 74 75 75 75 75 75 74 73 73 74 74 75 75 74 73 73 73 73 73 73 72 72 72 72 72 72
70 71 71 72 72 73 74 74 75 75 75 75 76 76 76 76 76 76 76 76 76 76 76 76 76 76 75 75 75 76 76 76 76 76 75 76 75 74 76 73 73 72 74 73 75 75 75 75 75 75 75 74 74 75 75 74 74 73 74 74 74 73 74 73 74 73 74 75 76 74 75 75 74 74 73 73 74 74 73 73 72 72 72 72 72
70 71 71 71 72 73 74 74 74 75 75 75 76 76 76 76 75 75 76 75 76 76 76 76 77 76 76 75 76 76 76 76 75 77 76 76 75 74 74 73 71 72 72 74 74 75 74 73 74 74 74 75 75 76 76 74 74 75 74 74 74 73 73 73 73 73 74 75 75 76 75 75 75 74 73 73 73 74 73 73 73 72 72 72 72
70 70 70 71 72 73 74 74 74 74 74 75 76 76 76 75 75 75 76 76 77 77 76 76 76 76 76 76 77 76 77 77 78 77 77 77 77 76 75 74 72 72 73 73 74 75 75 75 74 73 74 75 76 76 76 76 73 75 74 73 73 73 74 73 73 73 74 74 76 76 75 75 75 74 73 73 73 73 73 74 73 73 72 72 72
69 70 70 71 72 73 73 74 74 74 74 74 75 75 76 75 75 75 75 75 76 77 76 76 75 76 75 76 75 77 77 76 78 76 75 76 76 77 76 75 73 73 74 75 76 77 76 75 75 75 75 77 74 75 75 73 73 72 72 72 72 72 73 72 72 72 73 74 75 76 75 76 75 74 73 73 72 72 73 73 74 73 73 72 72
70 70 70 72 72 72 73 73 74 74 73 74 74 75 75 75 75 75 75 75 76 76 76 75 75 76 75 75 76 76 75 75 75 76 76 75 74 75 76 75 75 74 76 75 76 76 77 75 76 77 75 75 73 72 72 71 73 73 71 70 70 70 71 72 71 71 73 74 74 76 76 76 76 75 74 73 72 72 72 73 73 73 73 73 73
70 69 70 71 72 72 72 73 73 73 73 73 74 75 75 74 74 75 75 75 75 75 75 75 75 75 75 75 76 75 74 74 74 75 76 75 73 75 74 74 75 75 77 75 75 74 74 74 73 74 75 74 71 72 73 73 70 70 70 70 69 69 68 69 71 70 72 73 73 75 76 76 76 75 74 74 73 73 73 73 73 73 73 73 73
69 69 70 71 71 72 72 73 72 73 73 73 74 75 74 74 74 74 74 74 75 74 74 74 74 75 75 76 74 73 74 73 74 74 74 75 74 74 73 74 75 74 76 75 74 74 74 74 74 74 75 71 71 71 72 70 70 68 68 69 69 69 68 69 71 70 71 72 73 75 76 76 76 76 75 74 74 73 73 73 73 73 73 73 73
69 69 70 71 72 71 72 72 72 72 73 72 73 74 73 73 73 75 74 74 74 74 73 73 74 75 75 75 74 72 73 73 74 74 76 76 77 75 75 74 75 75 76 75 74 74 73 74 74 73 73 73 71 70 70 68 69 70 67 66 68 66 68 69 71 71 71 73 74 76 76 77 76 76 76 75 75 74 73 73 74 73 73 73 73
69 69 70 70 71 72 72 72 72 72 73 72 73 73 72 73 74 73 73 75 73 73 73 73 74 74 75 75 75 73 73 74 73 74 76 76 75 75 74 73 74 74 76 75 75 74 74 74 74 72 72 72 71 70 68 68 68 66 67 67 64 65 67 69 70 71 71 73 74 75 76 76 76 76 76 75 75 75 74 74 74 74 74 72 72
68 69 69 69 70 72 72 72 72 72 72 72 72 73 72 73 73 73 73 76 73 72 73 73 74 74 75 74 74 73 73 72 72 73 75 74 74 75 73 74 74 74 73 72 75 74 72 73 73 73 72 72 71 70 70 68 67 66 67 65 65 64 63 65 67 69 72 73 73 74 76 76 76 76 75 75 75 75 75 74 74 74 74 73 72
68 68 68 69 70 70 71 72 71 73 72 71 72 73 73 72 73 72 73 73 73 73 73 72 73 74 74 75 74 75 71 72 73 74 75 74 75 76 75 76 75 75 75 74 75 75 74 73 74 72 72 71 71 71 70 68 68 66 66 64 63 65 66 64 62 66 72 73 72 74 76 76 76 75 75 75 75 75 75 75 74 74 73 72 72
67 67 68 68 69 69 70 71 71 72 73 70 72 72 72 73 73 72 72 72 73 72 72 72 74 74 75 75 77 76 74 72 73 74 74 75 76 75 76 75 76 77 76 75 76 76 75 75 75 74 73 72 71 71 71 69 68 65 66 65 64 66 66 66 63 61 70 72 72 74 75 75 76 76 76 75 75 75 75 76 75 74 74 73 72
67 67 68 68 68 69 70 71 71 72 72 71 71 72 72 72 72 71 72 73 72 72 71 72 72 74 76 76 77 77 77 75 74 75 78 75 75 75 75 75 75 75 76 76 76 76 74 73 73 74 74 73 71 70 71 67 66 65 65 65 66 66 66 64 63 63 70 72 72 73 74 75 75 76 76 76 75 75 75 76 76 74 74 73 74
66 67 67 67 68 68 70 71 71 72 72 71 71 71 72 72 73 72 74 74 73 72 72 72 71 75 77 76 77 78 77 77 77 77 76 76 75 75 74 75 75 76 76 76 75 75 74 73 72 73 74 73 71 69 69 66 65 65 64 66 67 66 68 64 64 62 66 71 72 73 73 74 75 75 75 76 76 75 75 75 74 75 74 74 74
67 67 67 67 68 67 69 70 72 71 72 71 71 71 72 73 73 73 74 74 74 72 73 74 71 74 76 76 77 77 77 76 76 76 76 76 74 74 74 75 76 75 75 75 74 75 74 73 73 72 72 71 70 70 69 67 67 64 66 69 66 66 68 64 65 64 64 65 70 72 72 73 73 74 75 75 77 76 76 75 74 74 75 74 74
67 67 67 67 67 67 69 69 72 71 72 72 70 72 71 72 73 75 74 73 74 73 72 73 73 74 76 76 76 77 77 76 77 76 75 76 74 74 74 75 76 76 75 75 74 74 73 73 73 72 70 70 71 68 67 67 67 67 67 69 66 70 66 67 64 63 63 64 66 68 71 72 73 73 75 73 74 75 76 75 75 74 74 74 74
66 66 67 67 66 67 70 69 71 71 71 72 72 72 72 72 72 73 74 73 73 73 73 73 74 75 75 76 77 77 77 77 76 77 76 75 75 76 75 75 76 75 74 74 74 73 71 72 72 73 71 69 69 68 67 66 66 65 64 63 66 69 66 67 67 68 71 67 65 65 67 70 73 76 74 73 73 74 76 76 75 74 74 73 74
66 66 67 67 68 67 68 69 71 71 71 71 73 72 72 73 73 73 75 73 73 73 73 73 73 74 74 76 76 77 76 77 76 77 76 76 75 75 75 74 75 75 74 73 73 73 73 72 71 72 72 70 69 68 66 66 66 65 64 64 66 66 66 67 67 71 67 66 65 65 66 70 70 70 71 72 71 74 74 75 75 75 74 74 74
66 65 68 67 69 68 68 69 71 71 71 71 74 73 73 72 72 73 73 73 72 72 72 72 72 72 74 75 77 76 77 77 77 77 76 76 75 76 74 75 75 75 74 73 72 72 72 72 71 71 72 72 69 66 66 67 66 67 66 65 67 69 67 68 70 68 66 64 64 66 66 67 68 70 70 71 71 72 73 73 74 73 73 75 75
67 66 69 67 68 70 67 70 70 71 71 71 73 72 73 72 70 72 72 73 72 72 73 72 72 72 73 76 77 76 77 76 76 77 77 76 75 75 75 75 75 74 73 72 71 71 72 72 71 71 70 70 70 68 67 64 67 66 68 68 68 67 66 70 67 66 69 66 66 61 61 63 65 67 69 70 70 71 72 72 74 72 73 74 73
67 67 68 68 68 70 67 69 69 71 71 70 72 72 71 71 71 70 70 72 72 73 73 73 72 73 75 76 77 77 76 77 76 76 76 77 76 76 75 75 75 74 73 72 72 72 72 72 72 71 67 66 66 68 68 65 64 64 67 66 66 67 72 69 66 65 64 64 62 58 59 58 60 63 66 68 69 71 72 71 71 72 71 72 73
66 67 67 68 68 69 69 68 71 71 71 71 71 72 71 71 70 70 70 71 72 72 72 72 72 74 76 76 76 77 76 77 77 77 76 76 76 75 74 74 74 74 73 73 72 74 72 71 70 69 68 66 65 67 67 67 64 64 63 63 66 64 69 67 64 63 64 61 60 58 58 58 58 60 65 66 67 68 69 70 71 72 71 72 72
66 67 67 68 68 68 70 69 72 72 72 72 71 71 72 72 71 71 70 70 72 72 72 73 73 73 76 76 77 77 76 76 77 77 77 76 76 74 74 74 73 74 73 72 72 71 71 69 67 66 67 68 67 68 66 64 63 64 65 62 62 60 65 66 68 67 64 57 57 56 57 56 58 59 60 61 64 65 66 67 68 70 72 72 71
66 67 69 68 69 69 69 70 70 72 72 72 72 72 72 73 72 72 71 70 71 72 72 74 73 72 73 76 76 77 76 76 77 77 77 76 75 74 74 74 73 74 73 72 71 69 69 68 66 69 66 62 64 64 67 65 67 64 61 62 62 63 62 61 63 65 61 53 55 56 57 57 58 60 58 59 63 65 66 65 65 66 70 72 72
66 66 68 69 69 69 69 71 70 71 72 73 73 72 73 73 72 72 71 72 73 72 71 72 72 73 74 76 76 77 77 76 76 76 75 76 75 74 74 74 74 73 73 71 71 69 67 65 68 67 66 66 63 65 68 67 65 66 65 63 61 60 59 61 61 63 65 58 55 56 59 56 57 60 58 59 62 63 64 65 65 65 65 70 71
66 66 67 69 69 69 70 72 71 70 72 73 73 73 73 72 71 71 70 69 70 71 71 71 72 72 73 76 77 76 77 76 76 75 75 76 75 74 74 74 73 72 72 69 69 68 65 67 67 65 64 67 66 65 65 67 67 69 67 65 63 59 60 62 61 58 65 65 59 58 58 56 59 61 60 59 62 63 64 63 64 64 63 68 70
65 66 67 68 70 70 71 72 72 71 72 73 73 73 72 72 71 71 71 69 69 71 71 72 73 74 73 76 76 75 76 75 75 75 75 75 74 74 73 72 71 71 71 71 69 66 65 66 67 69 68 69 66 64 64 65 66 66 67 66 67 67 67 61 58 61 58 61 66 56 57 58 58 60 60 58 62 59 61 62 61 62 62 65 68
65 66 67 68 70 71 71 72 73 72 71 72 73 73 72 72 72 71 72 71 70 71 72 72 73 74 74 75 75 75 75 75 74 74 74 74 73 73 72 71 70 70 70 66 66 64 66 69 68 68 69 69 67 65 64 65 63 66 65 61 64 63 65 63 65 59 58 56 57 58 54 57 58 59 59 58 57 57 59 59 56 61 60 61 66
65 66 67 68 70 71 72 72 73 73 72 72 73 74 73 72 72 72 72 73 72 73 74 74 73 74 73 73 75 75 75 74 73 73 72 73 73 72 71 70 70 69 72 67 66 68 67 67 67 67 66 67 67 68 66 65 64 63 65 64 66 64 63 63 64 65 60 57 58 57 56 60 58 56 56 56 57 60 60 60 59 63 63 62 63
65 67 67 68 70 72 72 72 72 73 73 72 72 74 74 74 73 73 72 73 73 74 73 73 72 72 72 71 73 73 73 73 72 71 72 73 72 72 71 70 70 69 70 66 66 66 66 66 67 67 67 65 65 67 64 63 65 65 67 65 64 65 61 60 60 60 61 59 54 55 56 53 54 56 59 55 58 60 58 59 63 59 61 61 59
65 66 67 68 70 72 72 72 72 72 73 73 72 72 74 74 73 73 73 73 73 73 72 72 72 71 72 71 72 72 72 72 72 71 72 71 71 71 70 70 68 70 68 66 66 65 66 66 66 66 67 67 66 67 66 68 69 67 67 65 65 64 60 60 61 59 59 61 57 59 57 58 55 58 61 59 60 58 59 60 61 58 59 62 61